[[{"header":{"parameterUnit":"m.s-1","parameterCategory":1,"la1":30.2991,"la2":30.254,"lo1":-89.0895,"lo2":-89.0444,"dy":0.0017,"dx":0.0017,"nx":28,"ny":28,"refTime":"2025-05-30T09:00:00:Z","depth":0,"parameterNumber":2,"parameterNumberName":"U-component_of_WINDS"},"data":[0,0,0,0,0,0,0,0,0,0,0,0,0,0,0,0,0,0,0,0,0,0,0,0,0,0,0,0,0,0,0,0,0,0,0,0,0,0,0,0,0,0,0,0,0,0,0,0,0,0,0,0,0,0,0,0,0,0,1.3682,1.3682,0,1.3636,1.3635,1.3635,1.3561,1.356,1.3559,1.3557,1.3511,1.3511,1.3511,0,0,0,0,0,0,0,0,0,0,0,0,0,1.3709,1.3709,1.3682,1.3682,1.3681,1.3636,1.3635,1.3634,1.3561,1.356,1.3558,1.3557,1.3511,1.3511,1.3511,0,0,0,0,0,0,0,0,0,0,0,0,0,1.3684,1.3709,1.3682,1.3639,1.3635,1.3636,1.3635,1.3634,1.3562,1.356,1.3558,1.3556,1.3511,1.3511,1.3511,1.3551,0,0,1.3511,1.3511,0,0,0,0,0,0,0,0,1.3685,1.3683,1.3646,1.3642,1.3637,1.3602,1.3628,1.3606,1.3562,1.359,1.3557,1.3555,1.3543,1.354,1.3536,1.3549,1.3547,1.3511,1.3511,1.3511,1.3511,0,0,0,0,0,0,0,1.3687,1.3684,1.3664,1.3646,1.364,1.3622,1.3617,1.3623,1.3578,1.3587,1.3582,1.3577,1.354,1.3536,1.3534,1.3546,1.3511,1.3511,1.3511,1.3511,1.3588,1.359,0,0,0,0,0,0,1.3695,1.3686,1.3665,1.3662,1.3657,1.3624,1.3617,1.3615,1.3578,1.357,1.3579,1.3574,1.3537,1.3534,1.3533,1.3575,1.3511,1.3511,1.3511,1.3586,1.3588,1.359,0,0,0,0,0,0,1.3696,1.3694,1.3667,1.3673,1.3668,1.3625,1.3624,1.3616,1.3611,1.3572,1.3563,1.3583,1.3535,1.3532,1.3546,1.3573,1.3511,1.3511,1.3583,1.3587,1.3589,1.3662,0,0,0,0,0,0,1.3697,1.3695,1.3709,1.3674,1.3668,1.3682,1.3626,1.3616,1.3611,1.3604,1.3573,1.3566,1.3534,1.3547,1.3546,1.3571,1.3511,1.3581,1.3585,1.3588,1.3657,1.3667,1.3676,0,0,0,0,0,1.3698,1.3732,1.371,1.3708,1.3685,1.3684,1.368,1.3642,1.3614,1.3628,1.3602,1.3567,1.357,1.3549,1.3548,1.3573,1.3579,1.3584,1.3588,1.3653,1.3665,1.3676,0,0,0,0,0,0,1.3772,1.3727,1.3702,1.3725,1.3709,1.3671,1.3688,1.3656,1.3648,1.3642,1.3595,1.3589,1.3609,1.3593,1.357,1.3609,1.3569,1.3574,1.3619,1.363,1.3639,1.3642,1.3511,0,0,0,0,0,1.3792,1.3793,1.3754,1.3778,1.3771,1.3731,1.3729,1.3701,1.3682,1.3675,1.365,1.3634,1.3631,1.363,1.3625,1.3655,1.3646,1.3672,1.3681,1.3689,1.3693,1.3706,1.3717,1.3605,1.3605,1.3605,0,0,1.3831,1.3806,1.381,1.3792,1.3776,1.3779,1.3726,1.3732,1.3733,1.3676,1.3687,1.3668,1.3647,1.3669,1.3677,1.3656,1.3722,1.3695,1.3702,1.3701,1.3712,1.3723,1.3732,1.3609,1.3608,1.3608,0,0,1.3903,1.3886,1.3903,1.3888,1.3864,1.3837,1.3842,1.3808,1.3794,1.3804,1.376,1.3762,1.3759,1.3745,1.3737,1.3804,1.3771,1.3804,1.3853,1.3866,1.3875,1.3882,1.3905,1.3914,1.3809,1.3809,1.3809,0,1.3955,1.3958,1.3916,1.3924,1.3917,1.3865,1.3882,1.387,1.3846,1.3842,1.3819,1.3813,1.3795,1.3812,1.3828,1.3824,1.3827,1.3807,1.3877,1.3884,1.3891,1.3911,1.392,1.3813,1.3813,1.3812,1.3812,0,1.4022,1.4024,1.4042,1.4018,1.4014,1.4027,1.3987,1.3988,1.396,1.3936,1.3947,1.3923,1.3912,1.3915,1.3888,1.3928,1.3915,1.3886,1.3844,1.3906,1.3925,1.3933,1.3819,1.3818,1.3816,1.3815,0,0,1.4139,1.4093,1.4099,1.4088,1.4058,1.4059,1.4069,1.4058,1.4058,1.4044,1.4051,1.4049,1.4021,1.4012,1.3984,1.3996,1.4049,1.3965,1.3963,1.398,1.409,1.4111,1.4121,1.4028,1.4029,1.403,1.4091,0,1.4204,1.4218,1.4181,1.4205,1.4206,1.4156,1.4165,1.4148,1.4126,1.4124,1.41,1.4098,1.4062,1.4056,1.4066,1.4041,1.407,1.4036,1.4033,1.4034,1.4038,1.4131,1.4154,1.4212,1.4098,1.4099,1.41,0,1.4281,1.4269,1.4293,1.426,1.426,1.4268,1.4254,1.4253,1.4233,1.4216,1.4206,1.4173,1.4181,1.4142,1.4152,1.413,1.4127,1.4114,1.4115,1.4112,1.407,1.4129,1.423,1.4238,1.4112,1.4111,1.411,0,1.4361,1.4352,1.4364,1.4357,1.432,1.4327,1.4312,1.4289,1.4284,1.4273,1.4269,1.4259,1.4253,1.4246,1.4211,1.4186,1.4225,1.4183,1.421,1.4211,1.4219,1.4219,1.4319,1.422,1.422,1.422,1.422,0,1.4437,1.4453,1.44,1.4407,1.4424,1.4382,1.4399,1.4379,1.436,1.4362,1.432,1.4324,1.4278,1.4277,1.425,1.4261,1.426,1.4246,1.4238,1.4248,1.425,1.4244,1.4239,1.4222,1.4222,1.4221,1.4221,0,1.4528,1.4494,1.4504,1.4468,1.446,1.4473,1.4442,1.4448,1.4423,1.4427,1.4426,1.4387,1.4384,1.4348,1.4337,1.4319,1.434,1.4326,1.4347,1.4342,1.437,1.4367,1.4469,1.4479,1.4376,1.4377,1.4377,0,1.4577,1.4588,1.4554,1.4552,1.4539,1.4538,1.4532,1.4492,1.4488,1.4465,1.4473,1.4466,1.4458,1.4454,1.4425,1.4416,1.44,1.4436,1.4398,1.4408,1.4398,1.4397,1.4398,1.4444,1.4445,1.4446,1.4447,0,1.4668,1.465,1.4644,1.4632,1.4627,1.4615,1.4601,1.4603,1.4558,1.4556,1.4551,1.4545,1.4533,1.4526,1.4512,1.4497,1.4464,1.446,1.4465,1.4475,1.4486,1.4479,1.4367,1.4457,1.4456,1.4455,1.4455,1.4454,1.4738,1.4745,1.4722,1.4716,1.4701,1.4689,1.4692,1.4668,1.4663,1.465,1.4627,1.4625,1.4604,1.4581,1.4569,1.4567,1.4548,1.4556,1.4558,1.456,1.4565,1.4488,1.4565,1.4564,1.4564,1.4564,1.4564,0,1.4825,1.4807,1.4803,1.4784,1.478,1.475,1.4733,1.4731,1.473,1.4713,1.4706,1.47,1.4693,1.4664,1.4654,1.4658,1.4643,1.4657,1.4655,1.4652,1.4584,1.4579,1.4669,1.4669,1.4669,1.4669,1.4669,1.4669,1.4869,1.4878,1.4858,1.486,1.4843,1.484,1.4833,1.4822,1.4808,1.4803,1.4797,1.4778,1.4756,1.4744,1.4736,1.4728,1.4725,1.4744,1.473,1.4667,1.4657,1.4647,1.4642,1.4744,1.4744,1.4798,1.4799,1.4799]},{"header":{"parameterUnit":"m.s-1","parameterCategory":1,"la1":30.2991,"la2":30.254,"lo1":-89.0895,"lo2":-89.0444,"dy":0.0017,"dx":0.0017,"nx":28,"ny":28,"refTime":"2025-05-30T09:00:00:Z","depth":0,"parameterNumber":3,"parameterNumberName":"V-component_of_WINDS"},"data":[0,0,0,0,0,0,0,0,0,0,0,0,0,0,0,0,0,0,0,0,0,0,0,0,0,0,0,0,0,0,0,0,0,0,0,0,0,0,0,0,0,0,0,0,0,0,0,0,0,0,0,0,0,0,0,0,0,0,1.5432,1.5433,0,1.5455,1.5455,1.5455,1.5414,1.5413,1.5411,1.541,1.5433,1.5435,1.5437,0,0,0,0,0,0,0,0,0,0,0,0,0,1.5353,1.5354,1.5432,1.5433,1.5433,1.5455,1.5455,1.5455,1.5414,1.5413,1.5411,1.5409,1.5433,1.5435,1.5437,0,0,0,0,0,0,0,0,0,0,0,0,0,1.5382,1.5355,1.5432,1.5415,1.5414,1.5455,1.5455,1.5455,1.5415,1.5413,1.541,1.5409,1.5432,1.5435,1.5438,1.5497,0,0,1.5446,1.5448,0,0,0,0,0,0,0,0,1.5381,1.5385,1.5417,1.5416,1.5415,1.5429,1.5435,1.5469,1.5415,1.5414,1.541,1.5408,1.5434,1.5436,1.5445,1.5498,1.5499,1.5447,1.5448,1.545,1.545,0,0,0,0,0,0,0,1.5379,1.5384,1.5441,1.5418,1.5416,1.5406,1.5408,1.5442,1.5435,1.5414,1.5411,1.5414,1.5433,1.5442,1.5445,1.5499,1.5446,1.5449,1.5451,1.5452,1.5598,1.56,0,0,0,0,0,0,1.5379,1.5383,1.544,1.5442,1.5392,1.5409,1.5411,1.5427,1.5435,1.5434,1.5416,1.5412,1.5439,1.5442,1.5446,1.5514,1.545,1.5452,1.5454,1.5596,1.5599,1.5601,0,0,0,0,0,0,1.5377,1.5385,1.544,1.5412,1.5418,1.5412,1.5431,1.5428,1.5438,1.5436,1.5435,1.5427,1.5437,1.5442,1.5484,1.5514,1.5453,1.5456,1.5594,1.5597,1.56,1.5651,0,0,0,0,0,0,1.5375,1.5384,1.5407,1.5412,1.5419,1.5477,1.5432,1.543,1.5443,1.5438,1.5446,1.5446,1.5436,1.548,1.5486,1.5517,1.5458,1.5591,1.5595,1.5599,1.5647,1.5656,1.5663,0,0,0,0,0,1.5373,1.5421,1.5408,1.5416,1.5448,1.5479,1.5483,1.5471,1.5446,1.5468,1.5467,1.5446,1.551,1.5484,1.5492,1.5523,1.5589,1.5594,1.5599,1.5643,1.5654,1.5663,0,0,0,0,0,0,1.5421,1.5422,1.5408,1.5459,1.5469,1.5472,1.55,1.5483,1.5501,1.5496,1.5479,1.5481,1.5526,1.5529,1.5501,1.5579,1.5545,1.5552,1.5576,1.5586,1.5595,1.5593,1.5461,0,0,0,0,0,1.5437,1.5463,1.5462,1.5508,1.5514,1.5506,1.552,1.5509,1.5519,1.5523,1.5524,1.5535,1.5557,1.5572,1.5592,1.5647,1.5647,1.5672,1.568,1.5687,1.5693,1.572,1.573,1.5617,1.5617,1.5617,0,0,1.5472,1.5475,1.5493,1.5518,1.5524,1.555,1.551,1.554,1.5559,1.5527,1.5566,1.5568,1.5578,1.5626,1.5647,1.5629,1.5724,1.5693,1.5699,1.5701,1.5726,1.5737,1.5746,1.562,1.562,1.5619,0,0,1.5548,1.5554,1.5591,1.5598,1.5608,1.5602,1.5612,1.5617,1.5616,1.5655,1.5631,1.5653,1.5692,1.57,1.5709,1.5785,1.5766,1.5792,1.5836,1.5862,1.5871,1.5879,1.5905,1.5914,1.5798,1.5798,1.5798,0,1.559,1.5628,1.5613,1.5644,1.5655,1.5626,1.5663,1.5671,1.5687,1.5695,1.5676,1.5722,1.5728,1.5775,1.5794,1.5803,1.5811,1.5791,1.5871,1.5879,1.5886,1.591,1.592,1.5801,1.5801,1.58,1.58,0,1.5678,1.5705,1.5734,1.5749,1.5764,1.5798,1.5787,1.5803,1.579,1.5787,1.5825,1.583,1.585,1.5861,1.5849,1.5907,1.5895,1.5874,1.5838,1.59,1.5922,1.5932,1.5805,1.5804,1.5803,1.5803,0,0,1.5786,1.5791,1.5802,1.5807,1.5815,1.5835,1.5867,1.5886,1.5899,1.5911,1.5937,1.597,1.5949,1.5959,1.5948,1.5971,1.6029,1.5946,1.5946,1.5961,1.6091,1.6106,1.6117,1.6016,1.6018,1.602,1.6089,0,1.586,1.5915,1.5901,1.5955,1.5979,1.5951,1.5979,1.5986,1.5983,1.6002,1.5998,1.6021,1.5993,1.5999,1.602,1.6018,1.6055,1.6013,1.6039,1.604,1.6037,1.6129,1.6146,1.6212,1.6098,1.61,1.6101,0,1.5955,1.5969,1.6025,1.6026,1.6036,1.6061,1.6076,1.6095,1.6102,1.6098,1.6108,1.6092,1.6122,1.6087,1.6128,1.6099,1.6109,1.6109,1.6112,1.6113,1.6074,1.6132,1.6233,1.6242,1.6115,1.6114,1.6113,0,1.6026,1.6059,1.6096,1.6102,1.6105,1.6123,1.6125,1.613,1.6142,1.6155,1.6162,1.6178,1.6188,1.62,1.6189,1.6164,1.6231,1.6195,1.6228,1.6228,1.6243,1.6242,1.6345,1.6251,1.6251,1.6251,1.625,0,1.611,1.6145,1.6128,1.6151,1.6188,1.6172,1.621,1.6209,1.6213,1.6234,1.6212,1.6232,1.6216,1.6235,1.6226,1.626,1.6265,1.6262,1.6259,1.6264,1.6264,1.627,1.6264,1.6253,1.6253,1.6252,1.6252,0,1.6196,1.6186,1.6224,1.6223,1.6224,1.6252,1.6251,1.6272,1.6266,1.6293,1.6299,1.629,1.6311,1.6301,1.6323,1.6317,1.6361,1.6352,1.6358,1.6356,1.6388,1.6385,1.6498,1.6512,1.641,1.6411,1.6411,0,1.625,1.6276,1.6277,1.6289,1.6293,1.6314,1.6324,1.6309,1.6321,1.633,1.6349,1.6368,1.6382,1.6417,1.6412,1.6428,1.642,1.6458,1.6422,1.6425,1.6419,1.6417,1.6419,1.6465,1.6466,1.6467,1.6468,0,1.6346,1.6339,1.6355,1.637,1.6383,1.6394,1.6403,1.6414,1.6398,1.6413,1.6434,1.6445,1.6466,1.6485,1.6498,1.65,1.6481,1.6479,1.6488,1.6492,1.6494,1.6492,1.6377,1.6477,1.6476,1.6475,1.6475,1.6475,1.6417,1.6437,1.6441,1.6459,1.6464,1.6472,1.6491,1.6487,1.6504,1.6519,1.6509,1.6533,1.6537,1.6554,1.6558,1.6576,1.656,1.6573,1.6576,1.6579,1.6582,1.6492,1.6578,1.6578,1.6578,1.6578,1.6578,0,1.651,1.651,1.6528,1.654,1.6554,1.6534,1.6542,1.6555,1.6576,1.6582,1.6596,1.6619,1.6636,1.6632,1.6648,1.6663,1.6654,1.6667,1.6666,1.6666,1.6596,1.6587,1.6674,1.6674,1.6674,1.6674,1.6674,1.6674,1.656,1.6594,1.6587,1.6622,1.6622,1.6645,1.6651,1.6658,1.6662,1.6688,1.6702,1.6699,1.6701,1.6716,1.673,1.6729,1.6735,1.6751,1.6746,1.6681,1.6671,1.6662,1.6653,1.6753,1.6753,1.6815,1.6815,1.6816]}]]